TAM2445 SABE-SAZS

Flight info

Callsign TAM2445
Flight time N/A
Altitude 34000
Route PAL9XTORUL/31 TORUL UT654 ORERA ORERA1Q
Aircraft A320/M-SDE3FGHIRWY/LB1

Departure

Time N/A
Airport Aeroparque Jorge Newbery (SABE)

Arrival

Time 2026-05-03 21:09
Airport Teniente Luis Candelaria International Airport (SAZS)
Time Latitude Longitude Altitude Speed Heading
2026-05-03 20:39 -40.08662 -68.62476 33798 ft 374 kts 243°
2026-05-03 20:39 -40.11515 -68.68170 33798 ft 375 kts 243°
2026-05-03 20:40 -40.14365 -68.73873 33797 ft 375 kts 243°
2026-05-03 20:40 -40.17209 -68.79583 33793 ft 375 kts 243°
2026-05-03 20:41 -40.20054 -68.85293 33793 ft 375 kts 243°
2026-05-03 20:41 -40.22898 -68.91013 33794 ft 375 kts 243°
2026-05-03 20:42 -40.25742 -68.96737 33796 ft 375 kts 243°
2026-05-03 20:42 -40.28568 -69.02469 33787 ft 375 kts 243°
2026-05-03 20:43 -40.31399 -69.08207 33784 ft 375 kts 243°
2026-05-03 20:43 -40.34230 -69.13956 33782 ft 375 kts 243°
2026-05-03 20:44 -40.37067 -69.19706 33779 ft 376 kts 243°
2026-05-03 20:44 -40.39904 -69.25462 33772 ft 376 kts 243°
2026-05-03 20:45 -40.42743 -69.31228 33651 ft 375 kts 243°
2026-05-03 20:45 -40.44169 -69.34133 32697 ft 381 kts 243°
2026-05-03 20:45 -40.45593 -69.37038 32270 ft 375 kts 243°
2026-05-03 20:45 -40.46994 -69.39894 31823 ft 370 kts 243°
2026-05-03 20:46 -40.48377 -69.42717 31380 ft 365 kts 243°
2026-05-03 20:46 -40.49736 -69.45503 30950 ft 360 kts 243°
2026-05-03 20:46 -40.51079 -69.48262 30519 ft 356 kts 242°
2026-05-03 20:46 -40.52385 -69.50947 30099 ft 352 kts 242°
2026-05-03 20:47 -40.53700 -69.53648 29647 ft 348 kts 242°
2026-05-03 20:47 -40.54996 -69.56311 29207 ft 343 kts 242°
2026-05-03 20:47 -40.56271 -69.58935 28797 ft 338 kts 242°
2026-05-03 20:47 -40.57526 -69.61523 28394 ft 334 kts 242°
2026-05-03 20:48 -40.58767 -69.64090 27991 ft 330 kts 242°
2026-05-03 20:48 -40.59994 -69.66624 27599 ft 327 kts 242°
2026-05-03 20:48 -40.61213 -69.69138 27216 ft 324 kts 242°
2026-05-03 20:48 -40.62421 -69.71631 26839 ft 322 kts 242°
2026-05-03 20:49 -40.63625 -69.74112 26466 ft 320 kts 242°
2026-05-03 20:49 -40.64818 -69.76577 26095 ft 318 kts 242°
2026-05-03 20:49 -40.66000 -69.79025 25739 ft 316 kts 242°
2026-05-03 20:49 -40.67174 -69.81458 25385 ft 313 kts 242°
2026-05-03 20:50 -40.68334 -69.83867 25040 ft 310 kts 242°
2026-05-03 20:50 -40.69483 -69.86253 24699 ft 307 kts 242°
2026-05-03 20:50 -40.70620 -69.88616 24365 ft 303 kts 242°
2026-05-03 20:50 -40.71744 -69.90953 23962 ft 302 kts 242°
2026-05-03 20:51 -40.72882 -69.93323 23220 ft 312 kts 242°
2026-05-03 20:51 -40.74055 -69.95773 22475 ft 318 kts 242°
2026-05-03 20:51 -40.75238 -69.98243 21966 ft 318 kts 242°
2026-05-03 20:51 -40.76421 -70.00705 21530 ft 317 kts 242°
2026-05-03 20:52 -40.77596 -70.03152 21079 ft 315 kts 242°
2026-05-03 20:52 -40.78761 -70.05580 20585 ft 313 kts 242°
2026-05-03 20:52 -40.79922 -70.08003 20094 ft 311 kts 242°
2026-05-03 20:52 -40.81077 -70.10413 19665 ft 309 kts 242°
2026-05-03 20:53 -40.82222 -70.12809 19226 ft 308 kts 242°
2026-05-03 20:53 -40.83360 -70.15197 18786 ft 306 kts 242°
2026-05-03 20:53 -40.84491 -70.17571 18343 ft 306 kts 242°
2026-05-03 20:53 -40.85606 -70.19912 17898 ft 304 kts 242°
2026-05-03 20:54 -40.86733 -70.22274 17434 ft 303 kts 243°
2026-05-03 20:54 -40.88970 -70.26958 16524 ft 299 kts 242°
2026-05-03 20:54 -40.90071 -70.29274 16075 ft 297 kts 243°
2026-05-03 20:55 -40.91163 -70.31575 15651 ft 294 kts 243°
2026-05-03 20:55 -40.92244 -70.33858 15215 ft 292 kts 243°
2026-05-03 20:55 -40.93393 -70.36072 14792 ft 292 kts 239°
2026-05-03 20:55 -40.94619 -70.38211 14377 ft 291 kts 238°
2026-05-03 20:56 -40.95858 -70.40308 13939 ft 289 kts 237°
2026-05-03 20:56 -40.97104 -70.42393 13502 ft 288 kts 237°
2026-05-03 20:56 -40.98343 -70.44469 13047 ft 287 kts 238°
2026-05-03 20:56 -40.99569 -70.46539 12631 ft 284 kts 238°
2026-05-03 20:57 -41.00784 -70.48597 12212 ft 283 kts 238°
2026-05-03 20:57 -41.01985 -70.50644 11791 ft 281 kts 238°
2026-05-03 20:57 -41.03181 -70.52685 11384 ft 279 kts 238°
2026-05-03 20:57 -41.04367 -70.54713 10980 ft 277 kts 239°
2026-05-03 20:58 -41.05545 -70.56728 10583 ft 275 kts 239°
2026-05-03 20:58 -41.06716 -70.58734 10183 ft 274 kts 239°
2026-05-03 20:58 -41.07881 -70.60731 9828 ft 273 kts 239°
2026-05-03 20:58 -41.09029 -70.62694 9638 ft 265 kts 239°
2026-05-03 20:59 -41.10138 -70.64576 9611 ft 251 kts 239°
2026-05-03 20:59 -41.11207 -70.66373 9377 ft 246 kts 240°
2026-05-03 20:59 -41.12248 -70.68151 9062 ft 243 kts 240°
2026-05-03 20:59 -41.13275 -70.69923 8734 ft 241 kts 240°
2026-05-03 21:00 -41.14293 -70.71683 8423 ft 239 kts 241°
2026-05-03 21:00 -41.14962 -70.72841 8225 ft 238 kts 241°
2026-05-03 21:00 -41.16299 -70.75153 7826 ft 234 kts 241°
2026-05-03 21:00 -41.17284 -70.76857 7544 ft 231 kts 242°
2026-05-03 21:01 -41.18248 -70.78519 7315 ft 221 kts 242°
2026-05-03 21:01 -41.19157 -70.80050 7273 ft 201 kts 242°
2026-05-03 21:01 -41.19995 -70.81427 7034 ft 191 kts 242°
2026-05-03 21:01 -41.20838 -70.82799 6806 ft 188 kts 242°
2026-05-03 21:02 -41.21659 -70.84131 6612 ft 183 kts 242°
2026-05-03 21:02 -41.22453 -70.85402 6345 ft 173 kts 242°
2026-05-03 21:02 -41.23196 -70.86569 6313 ft 156 kts 243°
2026-05-03 21:02 -41.23808 -70.87631 6292 ft 137 kts 254°
2026-05-03 21:03 -41.24074 -70.88817 6277 ft 132 kts 270°
2026-05-03 21:03 -41.24001 -70.90036 6202 ft 134 kts 282°
2026-05-03 21:03 -41.23665 -70.91159 6180 ft 131 kts 292°
2026-05-03 21:03 -41.23247 -70.92219 6153 ft 127 kts 291°
2026-05-03 21:04 -41.22883 -70.93246 6194 ft 122 kts 290°
2026-05-03 21:04 -41.22539 -70.94272 6202 ft 120 kts 289°
2026-05-03 21:04 -41.22218 -70.95262 6138 ft 111 kts 289°
2026-05-03 21:04 -41.21897 -70.96187 6002 ft 116 kts 292°
2026-05-03 21:05 -41.21504 -70.97152 5814 ft 121 kts 293°
2026-05-03 21:05 -41.21093 -70.98133 5626 ft 123 kts 293°
2026-05-03 21:05 -41.20696 -70.99152 5460 ft 125 kts 290°
2026-05-03 21:05 -41.20367 -71.00224 5264 ft 126 kts 288°
2026-05-03 21:06 -41.20064 -71.01316 5096 ft 126 kts 287°
2026-05-03 21:06 -41.19757 -71.02412 4938 ft 128 kts 288°
2026-05-03 21:06 -41.19401 -71.03491 4771 ft 127 kts 291°
2026-05-03 21:06 -41.19001 -71.04535 4555 ft 126 kts 292°
2026-05-03 21:07 -41.18602 -71.05584 4258 ft 128 kts 291°
2026-05-03 21:07 -41.18263 -71.06674 4080 ft 129 kts 290°
2026-05-03 21:07 -41.17905 -71.07774 3978 ft 130 kts 292°
2026-05-03 21:07 -41.17511 -71.08848 3807 ft 129 kts 293°
2026-05-03 21:08 -41.17136 -71.09932 3571 ft 131 kts 292°
2026-05-03 21:08 -41.16761 -71.11018 3375 ft 129 kts 292°
2026-05-03 21:08 -41.16381 -71.12101 3221 ft 129 kts 292°
2026-05-03 21:08 -41.16004 -71.13178 3025 ft 129 kts 289°
2026-05-03 21:09 -41.15639 -71.14256 2826 ft 128 kts 292°
2026-05-03 21:09 -41.15289 -71.15273 2752 ft 101 kts 295°
2026-05-03 21:09 -41.15115 -71.15765 2751 ft 28 kts 296°
2026-05-03 21:09 -41.15038 -71.15984 2753 ft 24 kts 295°
2026-05-03 21:10 -41.14973 -71.16171 2755 ft 22 kts 295°
2026-05-03 21:10 -41.14923 -71.16311 2754 ft 9 kts 300°
2026-05-03 21:10 -41.14868 -71.16327 2753 ft 6 kts 25°
2026-05-03 21:10 -41.14813 -71.16290 2750 ft 9 kts 26°
2026-05-03 21:11 -41.14807 -71.16286 2750 ft 0 kts 25°
2026-05-03 21:11 -41.14794 -71.16278 2750 ft 5 kts 25°
2026-05-03 21:11 -41.14762 -71.16247 2749 ft 7 kts 56°
2026-05-03 21:12 -41.14741 -71.16186 2751 ft 6 kts 67°
2026-05-03 21:12 -41.14725 -71.16135 2749 ft 6 kts 67°
2026-05-03 21:12 -41.14717 -71.16110 2749 ft 1 kts 67°
2026-05-03 21:12 -41.14716 -71.16106 2749 ft 0 kts 67°